Flag for Mozambique Weather past 2 weeks in Maputo, Mozambique

Now
82 °F

Sunny.


Feels Like: 84 °F
Forecast: 70 / 89 °F
Wind: 15 mph from Northwest

Location: Maputo / Mavalane


UV Index: 5 (Moderate)

Visibility: 10 mi


Pressure: 29.95 "Hg

Humidity: 55%

Dew point: 64 °F

Location of MaputoLocation

Historic Weather in Maputo

°F

Maputo temperature yesterday

Maximum temperature yesterday: 88 °F (at 1:00 PM)
Minimum temperature yesterday: 66 °F (at 5:00 AM)
Average temperature yesterday: 77 °F

Past Weeks' High & Low Weather Summary

 TemperatureHumidityPressure
High91 °F (Apr 15, 2:00 PM)94% (Apr 10, 4:00 AM)30.30 "Hg (Apr 10, 4:00 AM)
Low61 °F (Apr 17, 5:00 AM)43% (Apr 14, 3:00 PM)29.92 "Hg (Apr 15, 3:00 AM)
Average74 °F74%30.16 "Hg
* Reported Apr 6 12:00 Noon — Apr 21 11:00 AM, Maputo, Weather by CustomWeather, © 2014

Note: Actual official high and low records may vary slightly from our data, if they occured in-between our weather recording intervals... More about our weather records

Advertising

Historic Weather Conditions — Data for Previous 24 hours

 ConditionsComfort  
Time TempWeatherWind HumidityBarometerVisibility
11:00 AM
Apr 21
82 °FSunny.15 mph55%29.95 "Hg10 mi
10:00 AM79 °FSunny.14 mph61%29.98 "Hg10 mi
9:00 AM75 °FSunny.13 mph69%30.01 "Hg10 mi
8:00 AM72 °FSunny.14 mph73%30.01 "Hg10 mi
7:00 AM68 °FSunny.10 mph83%30.01 "Hg10 mi
6:00 AM66 °FPassing clouds.8 mph88%29.98 "HgN/A
5:00 AM66 °FClear.8 mph88%29.98 "Hg10 mi
4:00 AM66 °FClear.7 mph88%29.98 "Hg10 mi
12:00 AM68 °FClear.3 mph94%30.04 "Hg10 mi
11:00 PM
Apr 20
68 °FClear.3 mph94%30.04 "Hg10 mi
10:00 PM72 °FClear.7 mph88%30.04 "Hg10 mi
9:00 PM73 °FClear.9 mph83%30.04 "Hg10 mi
7:00 PM75 °FClear.10 mph83%30.04 "Hg10 mi
6:00 PM75 °FClear.10 mph83%30.04 "Hg10 mi
5:00 PM79 °FClear.12 mph70%30.01 "Hg10 mi
3:00 PM86 °FSunny.10 mph59%30.04 "Hg10 mi
1:00 PM88 °FSunny.3 mph49%30.07 "Hg10 mi
12:00 PM84 °FSunny.7 mph58%30.09 "Hg10 mi
11:00 AM82 °FPassing clouds.8 mph62%30.12 "HgN/A
Weather by CustomWeather, © 2014

See weather overview